Volver al catálogo

KUIPER-00590

ActivoComunicacionesLEO
NORAD 69276·PAYLOAD·🇺🇸 United States

Lanzado May 29, 2026 desde Vandenberg Space Force Base

Loading…

Próximos Pases (próximas 24 horas)

TLE

ActualizadoSource: CelesTrak SupGP

Época: Sep 15, 2026, 03:05 UTC

1 69276C 26118K   26258.12855324  .00004198  00000+0  54972-3 0  2580
2 69276  51.9032   2.9551 0000559 123.1363  90.9752 14.79915220    15

Sigue KUIPER-00590 en tiempo real con AllMySat

Download on the App Store